User: anonymous   Login
Location: Brede
(50.9167°N, 0.6000°E)
Time: 09:48:22
(UTC+00:00)
Language:

Meteor 1-28 Rocket - Orbit

View from above orbital plane
View from above orbital plane
View from above satellite
View from above satellite

Ground track
Ground track

The orbit data is extracted from the following two-line orbital elements,

1 10114U 77057B   20293.88745715 +.00000314 +00000-0 +18887-4 0  9998
2 10114 097.3254 078.7159 0014275 020.9212 339.2603 15.17550153368647
Epoch (UTC): 19 October 2020 21:17:56
Eccentricity: 0.0014275
inclination: 97.3254°
perigee height: 503 km
apogee height: 523 km
right ascension of ascending node: 78.7159°
argument of perigee: 20.9212°
revolutions per day: 15.17550153
mean anomaly at epoch: 339.2603°
orbit number at epoch: 36864

The dashed part of the orbit path shows where the satellite is in the earth's shadow,  

DLR